• In Moldova, Republic
  • List of Countries
  • For 7 days
  • Water Temperature
  • Satellite Maps
  • Weather Map
  • Weather Widgets
  • user-avatar
    Login

    Hourly Weather Gjirokaster

    Today, 25 April, Wednesday

    Time Temperature Precipitation Wind Pressure Humidity
    00:00 +10°C° 0 mm 1 mps 653 mmHg 85%
    01:00 +10°C° 0 mm 1 mps 653 mmHg 85%
    02:00 +9°C° 0 mm 1 mps 653 mmHg 83%
    03:00 +9°C° 0 mm 1 mps 653 mmHg 81%
    04:00 +9°C° 0 mm 1 mps 652 mmHg 78%
    05:00 +10°C° 0 mm 1 mps 653 mmHg 71%
    06:00 +12°C° 0 mm 1 mps 653 mmHg 64%
    07:00 +13°C° 0 mm 1 mps 654 mmHg 57%
    08:00 +15°C° 0 mm 1 mps 654 mmHg 50%
    09:00 +16°C° 0 mm 1 mps 655 mmHg 44%
    10:00 +18°C° 0 mm 2 mps 655 mmHg 37%
    11:00 +18°C° 0 mm 2 mps 655 mmHg 37%
    12:00 +19°C° 0 mm 2 mps 655 mmHg 36%
    13:00 +19°C° 0 mm 3 mps 655 mmHg 36%
    14:00 +19°C° 0 mm 3 mps 655 mmHg 39%
    15:00 +19°C° 0 mm 3 mps 654 mmHg 42%
    16:00 +18°C° 0 mm 3 mps 654 mmHg 45%
    17:00 +16°C° 0 mm 2 mps 653 mmHg 53%
    18:00 +14°C° 0 mm 2 mps 653 mmHg 61%
    19:00 +12°C° 0 mm 1 mps 652 mmHg 69%
    20:00 +11°C° 0 mm 1 mps 652 mmHg 70%
    21:00 +11°C° 0 mm 1 mps 652 mmHg 71%
    22:00 +10°C° 0 mm 1 mps 652 mmHg 72%
    23:00 +10°C° 0 mm 1 mps 652 mmHg 71%

    Tomorrow, 26 April, Thursday

    Time Temperature Precipitation Wind Pressure Humidity
    00:00 +10°C° 0 mm 1 mps 652 mmHg 69%
    01:00 +10°C° 0 mm 1 mps 652 mmHg 68%
    02:00 +10°C° 0 mm 1 mps 652 mmHg 66%
    03:00 +10°C° 0 mm 1 mps 651 mmHg 65%
    04:00 +9°C° 0 mm 1 mps 651 mmHg 63%
    05:00 +11°C° 0 mm 1 mps 651 mmHg 60%
    06:00 +12°C° 0 mm 1 mps 652 mmHg 57%
    07:00 +13°C° 0 mm 1 mps 652 mmHg 54%
    08:00 +15°C° 0 mm 1 mps 652 mmHg 49%
    09:00 +18°C° 0 mm 1 mps 653 mmHg 45%
    10:00 +20°C° 0 mm 1 mps 653 mmHg 40%
    11:00 +20°C° 0 mm 1 mps 653 mmHg 41%
    12:00 +19°C° 0 mm 2 mps 653 mmHg 41%
    13:00 +20°C° 0 mm 2 mps 652 mmHg 41%
    14:00 +19°C° 0 mm 2 mps 652 mmHg 44%
    15:00 +19°C° 0 mm 2 mps 652 mmHg 48%
    16:00 +18°C° 0 mm 2 mps 651 mmHg 51%
    17:00 +16°C° 0.3 mm 2 mps 651 mmHg 60%
    18:00 +14°C° 0.3 mm 1 mps 651 mmHg 68%
    19:00 +12°C° 0.3 mm 1 mps 650 mmHg 77%
    20:00 +12°C° 0 mm 1 mps 650 mmHg 79%
    21:00 +11°C° 0 mm 1 mps 650 mmHg 80%
    22:00 +11°C° 0 mm 1 mps 651 mmHg 82%
    23:00 +10°C° 0 mm 1 mps 650 mmHg 82%

    Day after tomorrow, 27 April, Friday

    Time Temperature Precipitation Wind Pressure Humidity
    00:00 +10°C° 0 mm 1 mps 650 mmHg 82%
    01:00 +10°C° 0 mm 1 mps 650 mmHg 81%
    02:00 +10°C° 0 mm 1 mps 650 mmHg 80%
    03:00 +10°C° 0 mm 1 mps 650 mmHg 79%
    04:00 +10°C° 0 mm 1 mps 649 mmHg 77%
    05:00 +11°C° 0 mm 1 mps 650 mmHg 73%
    06:00 +13°C° 0 mm 1 mps 650 mmHg 69%
    07:00 +14°C° 0 mm 1 mps 651 mmHg 64%
    08:00 +16°C° 0 mm 1 mps 651 mmHg 57%
    09:00 +19°C° 0 mm 1 mps 652 mmHg 50%
    10:00 +21°C° 0 mm 1 mps 652 mmHg 43%
    11:00 +21°C° 0 mm 1 mps 652 mmHg 43%
    12:00 +21°C° 0 mm 2 mps 652 mmHg 43%
    13:00 +21°C° 0 mm 2 mps 652 mmHg 43%
    14:00 +20°C° 0.1 mm 2 mps 652 mmHg 47%
    15:00 +20°C° 0.1 mm 2 mps 652 mmHg 51%
    16:00 +20°C° 0.1 mm 1 mps 651 mmHg 55%
    17:00 +18°C° 0.2 mm 1 mps 651 mmHg 61%
    18:00 +16°C° 0.2 mm 1 mps 651 mmHg 67%
    19:00 +14°C° 0.2 mm 1 mps 651 mmHg 73%
    20:00 +13°C° 0.1 mm 1 mps 651 mmHg 74%
    21:00 +13°C° 0.1 mm 1 mps 651 mmHg 76%
    22:00 +13°C° 0.1 mm 1 mps 651 mmHg 77%
    23:00 +12°C° 0.3 mm 2 mps 651 mmHg 78%

    28 April, Saturday

    Time Temperature Precipitation Wind Pressure Humidity
    00:00 +12°C° 0.3 mm 2 mps 651 mmHg 79%
    01:00 +12°C° 0.3 mm 2 mps 651 mmHg 80%
    02:00 +10°C° 0 mm 2 mps 651 mmHg 80%
    03:00 +10°C° 0 mm 2 mps 650 mmHg 80%
    04:00 +10°C° 0 mm 2 mps 650 mmHg 80%
    05:00 +12°C° 0 mm 2 mps 651 mmHg 76%
    06:00 +13°C° 0 mm 2 mps 651 mmHg 72%
    07:00 +14°C° 0 mm 2 mps 651 mmHg 68%
    08:00 +16°C° 0 mm 2 mps 652 mmHg 59%
    09:00 +17°C° 0 mm 2 mps 653 mmHg 50%
    10:00 +19°C° 0 mm 2 mps 653 mmHg 41%
    11:00 +19°C° 0 mm 2 mps 653 mmHg 41%
    12:00 +19°C° 0 mm 2 mps 653 mmHg 42%
    13:00 +20°C° 0 mm 2 mps 653 mmHg 42%
    14:00 +19°C° 0 mm 2 mps 652 mmHg 45%
    15:00 +19°C° 0 mm 2 mps 652 mmHg 48%
    16:00 +18°C° 0 mm 2 mps 652 mmHg 51%
    17:00 +17°C° 0 mm 2 mps 652 mmHg 57%
    18:00 +15°C° 0 mm 2 mps 651 mmHg 62%
    19:00 +13°C° 0 mm 3 mps 651 mmHg 67%
    20:00 +12°C° 0.1 mm 3 mps 651 mmHg 71%
    21:00 +11°C° 0.1 mm 3 mps 651 mmHg 74%
    22:00 +11°C° 0.1 mm 3 mps 651 mmHg 77%
    23:00 +10°C° 0.1 mm 3 mps 651 mmHg 77%

    29 April, Sunday

    Time Temperature Precipitation Wind Pressure Humidity
    00:00 +10°C° 0.1 mm 3 mps 650 mmHg 77%
    01:00 +9°C° 0.1 mm 3 mps 650 mmHg 76%
    02:00 +9°C° 0.1 mm 3 mps 650 mmHg 75%
    03:00 +8°C° 0.1 mm 3 mps 650 mmHg 73%
    04:00 +8°C° 0.1 mm 3 mps 650 mmHg 72%
    05:00 +9°C° 0.1 mm 3 mps 650 mmHg 70%
    06:00 +10°C° 0.1 mm 3 mps 651 mmHg 68%
    07:00 +12°C° 0.1 mm 3 mps 651 mmHg 66%
    08:00 +13°C° 0 mm 3 mps 651 mmHg 62%
    09:00 +16°C° 0 mm 2 mps 652 mmHg 58%
    10:00 +17°C° 0 mm 2 mps 652 mmHg 54%
    11:00 +18°C° 0 mm 2 mps 652 mmHg 52%
    12:00 +18°C° 0 mm 2 mps 652 mmHg 50%
    13:00 +19°C° 0 mm 2 mps 652 mmHg 48%
    14:00 +19°C° 0 mm 2 mps 652 mmHg 49%
    15:00 +19°C° 0 mm 2 mps 652 mmHg 50%
    16:00 +19°C° 0 mm 2 mps 651 mmHg 50%
    17:00 +17°C° 0.2 mm 2 mps 651 mmHg 57%
    18:00 +15°C° 0.2 mm 2 mps 651 mmHg 63%
    19:00 +14°C° 0.2 mm 2 mps 650 mmHg 70%
    20:00 +13°C° 0.6 mm 2 mps 651 mmHg 74%
    21:00 +12°C° 0.6 mm 1 mps 651 mmHg 78%
    22:00 +11°C° 0.6 mm 1 mps 651 mmHg 82%
    23:00 +11°C° 0.3 mm 1 mps 650 mmHg 82%

    30 April, Monday

    Time Temperature Precipitation Wind Pressure Humidity
    00:00 +10°C° 0.3 mm 2 mps 650 mmHg 82%
    01:00 +9°C° 0.3 mm 2 mps 650 mmHg 82%
    02:00 +9°C° 0 mm 2 mps 650 mmHg 82%
    03:00 +9°C° 0 mm 2 mps 650 mmHg 82%
    04:00 +9°C° 0 mm 1 mps 650 mmHg 81%
    05:00 +11°C° 0 mm 1 mps 650 mmHg 77%
    06:00 +12°C° 0 mm 1 mps 650 mmHg 72%
    07:00 +13°C° 0 mm 1 mps 651 mmHg 67%
    08:00 +15°C° 0 mm 1 mps 651 mmHg 61%
    09:00 +17°C° 0 mm 2 mps 652 mmHg 56%
    10:00 +19°C° 0 mm 2 mps 652 mmHg 50%
    11:00 +19°C° 0.1 mm 2 mps 652 mmHg 50%
    12:00 +19°C° 0.1 mm 2 mps 652 mmHg 50%
    13:00 +19°C° 0.1 mm 3 mps 652 mmHg 49%
    14:00 +19°C° 0.6 mm 3 mps 652 mmHg 53%
    15:00 +18°C° 0.6 mm 3 mps 651 mmHg 58%
    16:00 +17°C° 0.6 mm 3 mps 651 mmHg 62%
    17:00 +16°C° 0.3 mm 2 mps 651 mmHg 68%
    18:00 +14°C° 0.3 mm 2 mps 651 mmHg 74%
    19:00 +13°C° 0.3 mm 2 mps 650 mmHg 81%
    20:00 +12°C° 0 mm 1 mps 650 mmHg 81%
    21:00 +12°C° 0 mm 1 mps 650 mmHg 81%
    22:00 +11°C° 0 mm 1 mps 650 mmHg 81%
    23:00 +11°C° 0 mm 1 mps 650 mmHg 81%
    Show more